#timestamp,LO_Frequency,Hit,StdDev 
1611187215.2,286047000.4,N
1611187235.9,286046998.5,N
1611187255.7,286047000.6,N
1611187275.6,286047002.3,N
1611187295.4,286047000.3,N
1611187315.2,286047000.3,N
1611187335.1,286046999.8,N
1611187336.0,286046999.8,N
1611187355.8,286047000.0,N
1611187375.7,286047000.1,N
1611187395.5,286047001.0,N
1611187415.3,286047002.5,N
1611187435.2,286047001.1,N
1611187455.0,286047004.9,Y
1611187455.9,286047004.9,P
1611187475.8,286047005.1,N
1611187495.6,286047004.9,N
1611187515.4,286047006.0,Y
1611187535.3,286047000.2,P
1611187555.1,286047007.1,P
1611187575.9,286047005.0,N
1611187595.7,286047006.0,N
1611187615.5,286047001.3,N
1611187635.4,286047000.2,N
1611187655.2,286047000.5,N
1611187675.0,286047001.9,N
1611187675.9,286047001.9,N
1611187695.8,286047002.5,N
1611187715.6,286046999.8,N
1611187735.5,286046999.9,N
1611187755.3,286047000.5,N
1611187775.1,286046998.4,N
1611187795.9,286046998.2,N
1611187815.7,286046998.3,N
1611187835.6,286046999.2,N
1611187855.4,286046997.3,N
1611187875.2,286046996.6,N
1611187895.1,286046996.9,N
1611187896.0,286046996.9,N
1611187915.8,286046996.7,N
1611187935.6,286046999.3,N
1611187955.5,286046996.9,N
1611187975.3,286046999.1,N
1611187995.2,286046996.9,N
1611188015.9,286046997.7,N
1611188035.7,286046998.9,N
1611188055.6,286046999.5,N
1611188075.4,286046998.8,N
1611188095.2,286046999.0,N
1611188115.1,286046997.0,N
1611188116.0,286046997.0,N
1611188135.8,286046997.5,N
1611188155.7,286046997.7,N
1611188175.5,286046996.9,N
1611188195.3,286046996.9,N
1611188215.2,286046996.5,N
1611188235.0,286046997.0,N
1611188235.9,286046997.0,N
1611188255.8,286046999.3,N
1611188275.6,286046996.5,Y
1611188295.4,286047000.8,P
1611188315.3,286047000.3,N
1611188335.1,286047000.2,N
1611188355.9,286046998.6,N
1611188375.7,286046998.8,N
1611188395.5,286046998.2,N
1611188415.4,286046998.8,N
1611188435.2,286046998.3,N
1611188485.1,286047000.9,E
1611188495.0,286046999.9,N
1611188495.9,286046999.9,P
1611188515.7,286046998.7,P
1611188535.6,286046999.3,N
1611188555.4,286046999.3,N
1611188575.3,286046998.1,Y
1611188595.1,286047002.3,P
1611188615.8,286046999.8,N
1611188635.7,286047000.1,N
1611188655.5,286047000.1,N
1611188675.4,286046999.8,N
1611188695.2,286047004.4,Y
1611188715.0,286047004.4,P
1611188715.9,286047004.4,N
1611188735.8,286047003.5,N
1611188755.6,286047002.4,N
1611188775.5,286047000.5,N
1611188795.3,286047001.2,N
1611188815.1,286047000.0,N
1611188835.9,286047002.9,N
1611188855.7,286047003.2,N
1611188875.5,286047003.1,N
1611188895.4,286047004.8,Y
1611188915.2,286047001.4,P
1611188935.1,286047002.1,P
1611188936.0,286047002.1,P
1611188955.8,286047002.4,Y
1611188975.6,286046999.3,P
1611188995.5,286046998.7,N
1611189015.3,286046998.7,N
1611189035.2,286046998.4,N
1611189055.9,286046998.8,N
1611189075.7,286046999.9,N
1611189095.6,286046998.6,N
1611189115.4,286046998.4,N
1611189135.2,286046998.9,N
1611189155.1,286046998.3,N
1611189156.0,286046998.3,N
1611189175.8,286046999.1,N
1611189195.7,286046996.5,Y
1611189215.5,286046998.8,P
1611189235.3,286046997.3,P
1611189255.2,286046999.5,N
1611189275.0,286046997.0,Y
1611189275.9,286046997.0,P
1611189295.8,286046998.7,N
1611189315.6,286046999.4,N
1611189335.4,286046998.4,N
1611189355.3,286047001.2,N
1611189375.1,286047000.2,N
1611189395.8,286047000.1,N
1611189415.7,286046999.8,N
1611189435.5,286047000.1,N
1611189455.4,286046998.5,N
1611189475.2,286046998.1,N
1611189495.0,286047000.9,N
1611189495.9,286047000.9,N
1611189515.8,286047000.0,N
1611189535.6,286046999.8,N
1611189555.4,286047000.1,N
1611189575.3,286047000.0,N
1611189595.1,286047000.9,N
1611189615.9,286047000.2,N
1611189635.7,286046999.8,N
1611189655.5,286047002.4,N
1611189675.4,286047004.4,Y
1611189695.2,286047003.9,P
1611189715.1,286047004.1,N
1611189716.0,286047004.1,N
1611189735.8,286047003.9,N
1611189755.6,286047001.8,N
1611189775.5,286047001.9,N
1611189795.3,286047002.4,N
1611189815.1,286047000.4,N
1611189835.9,286047000.2,N
1611189855.7,286047000.1,N
1611189875.6,286047002.8,N
1611189895.4,286047002.6,N
1611189915.2,286047002.4,N
1611189935.1,286047000.0,N
1611189936.0,286047000.0,N
1611189955.8,286047000.9,N
1611189975.7,286047000.2,N
1611189995.5,286047000.1,N
1611190015.3,286046999.9,N
1611190035.2,286046998.3,N
1611190055.0,286047000.8,N
1611190055.9,286047000.8,N
1611190075.8,286047000.3,N
1611190095.6,286047000.5,N
1611190115.4,286047000.8,N
1611190135.3,286047000.4,N
1611190155.1,286046998.1,N
1611190175.8,286046999.4,N
1611190195.7,286046998.7,N
1611190215.5,286046998.8,N
1611190235.4,286046998.1,N
1611190255.2,286046998.9,N
1611190275.0,286046998.4,N
1611190275.9,286046998.4,N
1611190295.8,286047011.9,Y
1611190315.6,286047000.7,P
1611190335.5,286046999.4,N
1611190355.3,286047000.0,N
1611190375.1,286046998.2,Y
1611190395.9,286046998.1,P
1611190415.7,286047000.0,N
1611190435.6,286047000.3,N
1611190455.4,286047000.8,N
1611190475.2,286046998.3,N
1611190495.1,286046998.8,N
1611190496.0,286046998.8,N
1611190515.8,286046999.3,N
1611190535.6,286046999.2,N
1611190555.5,286046999.0,N
1611190575.3,286046998.2,N
1611190595.2,286047000.7,N
1611190615.9,286046998.5,N
1611190635.7,286047001.0,N
1611190655.6,286047001.0,N
1611190675.4,286047000.1,N
1611190695.3,286047000.3,N
1611190715.1,286046998.6,N
1611190716.0,286046998.6,N
1611190735.8,286047000.5,N
1611190755.7,286047002.4,N
1611190775.5,286047000.0,N
1611190795.3,286046998.6,N
